Wind_Speed
19 20 20 21 21 22 23 23 23 23 24 24 24 22 21 21 21 21 21 20 20 19 19 19 20 20 22 23 24 26 29 31 33 34 34 34 34 34 34 34 36 36 37 36
20 20 20 21 21 22 22 23 23 23 24 24 23 22 21 21 21 21 21 20 19 19 19 19 19 19 21 22 23 25 26 28 30 32 33 33 33 33 33 32 34 35 36 37
20 20 20 21 22 22 23 23 24 24 24 24 24 22 20 21 21 21 20 19 19 18 18 18 18 18 21 21 22 24 25 27 30 30 31 31 32 32 33 33 33 35 36 37
20 20 20 21 22 22 22 23 24 24 25 24 25 24 21 21 21 21 20 19 19 18 18 18 18 17 19 20 22 23 24 26 28 29 29 30 31 32 32 33 33 33 33 35
21 21 21 21 22 22 23 23 23 24 24 24 24 25 22 22 20 20 20 19 18 18 18 17 17 16 18 20 20 22 23 25 27 28 28 29 30 32 32 32 32 32 32 32
22 21 21 21 22 22 23 23 23 23 24 23 24 24 23 22 21 19 18 18 18 17 16 16 16 16 18 19 19 21 22 23 25 27 28 28 29 30 32 33 33 33 33 33
23 22 22 22 22 23 23 24 24 24 24 24 24 23 23 22 20 19 18 18 17 16 16 16 16 16 18 18 19 21 22 23 23 24 26 27 28 28 30 31 32 32 33 34
24 23 22 22 22 23 23 24 24 25 25 24 23 22 21 21 20 19 18 18 17 16 16 17 16 16 18 19 19 21 23 23 23 23 24 25 28 29 30 30 32 32 33 33
26 25 24 23 23 23 23 23 24 24 25 25 24 23 20 19 19 19 18 18 17 16 17 17 17 17 17 19 20 21 22 23 23 24 25 26 28 30 30 29 31 32 32 33
27 27 25 24 24 24 24 24 24 24 25 25 24 23 22 19 19 19 18 18 17 17 16 16 16 16 16 18 19 20 21 22 23 24 26 27 28 29 30 31 32 33 33 34
28 28 26 26 25 25 24 24 24 24 24 24 24 23 22 20 20 19 19 18 18 17 17 17 17 17 17 17 18 18 19 21 22 24 26 27 28 29 30 32 33 33 34 35
29 29 28 27 26 26 25 25 24 24 23 23 24 22 21 22 22 21 19 19 18 18 17 17 17 18 19 19 19 19 20 21 23 23 26 28 28 30 30 31 33 34 35 36
30 30 29 28 27 27 26 25 25 25 24 23 23 22 21 22 22 22 21 20 19 18 18 18 18 19 19 20 21 21 22 22 23 24 25 27 28 30 31 32 33 34 36 37
32 31 30 29 28 28 27 26 26 26 25 25 24 23 22 22 22 23 22 21 21 20 19 19 20 20 20 21 21 22 23 24 25 26 27 28 29 31 32 34 35 36 37 38
34 33 32 30 29 29 28 27 26 27 27 27 25 24 23 22 23 24 24 23 22 22 21 21 20 20 21 21 22 23 24 25 26 27 28 30 31 33 34 35 36 38 38 39
35 35 33 32 31 31 30 28 28 28 28 28 27 25 24 24 25 26 25 24 24 23 23 22 22 21 22 23 23 24 25 26 27 28 29 31 32 33 34 35 36 37 38 39
37 36 35 34 33 34 32 29 29 29 29 29 28 27 26 25 26 26 26 26 25 25 24 24 23 23 24 24 24 24 26 27 28 29 31 32 32 33 34 35 36 36 37 38
38 38 37 37 36 36 33 31 30 30 30 30 29 28 27 27 27 27 27 27 27 26 25 25 25 25 25 25 25 26 27 28 29 30 30 32 33 34 34 34 35 36 37 37
38 38 39 38 38 37 33 32 31 32 31 30 30 29 29 28 28 28 28 28 27 27 27 27 27 27 27 27 28 29 30 30 30 31 32 32 32 33 33 33 34 36 36 37
38 38 39 38 38 37 34 33 32 33 33 31 31 31 31 30 30 30 30 29 29 29 29 28 28 28 29 29 30 30 31 32 32 32 32 33 33 33 33 35 36 37 37 38
38 38 38 38 39 37 35 35 34 35 35 34 33 33 33 32 32 32 32 31 31 30 30 30 30 30 31 31 31 32 33 33 33 33 34 33 34 34 35 36 37 38 38 38
38 39 39 39 39 38 36 36 36 36 36 35 35 34 34 34 34 34 33 33 33 32 32 32 32 32 33 34 34 34 34 35 35 35 35 35 35 36 37 37 38 38 39 39
39 39 40 40 39 39 39 39 38 38 37 37 37 36 36 36 36 36 35 35 34 34 34 34 34 35 35 36 36 36 36 36 36 36 36 37 37 38 38 39 39 39 39 39
39 39 39 39 39 39 39 40 39 39 39 39 39 39 38 38 38 38 37 36 36 36 36 36 36 37 37 37 37 37 37 37 37 37 37 38 38 39 39 40 40 40 40 40
41 40 40 40 39 39 40 40 40 41 41 41 41 41 40 40 39 39 39 38 38 37 38 38 38 38 38 39 39 39 38 38 37 38 39 39 40 40 40 40 40 40 41 41
41 42 41 41 39 40 39 40 41 42 42 42 42 42 41 41 40 39 39 39 39 39 39 39 40 40 40 40 40 40 39 39 39 39 40 40 41 41 41 41 40 40 41 41
Wind_Direction
305 309 313 316 317 317 318 321 323 321 320 323 324 321 315 312 309 309 308 305 300 293 288 276 268 256 244 240 238 235 235 234 232 232 234 237 238 240 241 240 239 241 242 244
304 308 312 315 316 317 317 319 322 320 321 323 323 322 318 317 315 311 309 308 304 297 291 282 268 258 246 241 238 234 236 236 234 232 233 235 236 239 239 242 243 242 243 245
303 307 310 313 315 316 317 318 320 321 321 323 323 322 320 321 320 316 311 308 305 300 293 285 272 260 249 240 237 234 236 236 235 233 233 234 235 240 241 242 245 244 244 245
302 305 308 310 313 314 316 317 319 321 321 324 326 324 324 322 321 318 312 308 306 301 293 286 274 262 250 242 238 236 238 237 236 235 235 236 238 240 244 245 246 246 248 248
302 304 306 308 311 313 315 317 318 320 321 323 327 325 327 323 321 319 316 311 308 304 295 288 278 263 252 246 241 238 241 240 239 237 237 238 239 243 247 247 248 249 251 252
299 302 304 307 308 311 312 314 316 318 320 323 327 326 327 325 320 318 317 313 308 303 295 291 281 266 257 252 244 242 244 242 242 243 242 240 241 244 247 248 250 251 253 255
296 299 302 305 306 308 309 311 314 317 321 323 326 326 327 326 320 317 315 312 308 299 293 293 284 269 261 258 251 247 248 247 246 247 245 242 241 245 248 247 250 252 254 256
295 297 300 303 305 307 308 309 313 315 318 321 322 324 327 325 322 319 317 315 311 301 294 294 287 276 270 266 259 255 253 251 251 252 250 247 245 248 251 251 254 255 256 257
293 296 298 299 302 304 305 307 310 311 312 317 321 322 324 324 324 321 320 318 314 303 294 292 289 284 276 271 267 261 258 252 255 257 254 254 251 250 253 255 256 257 258 260
290 292 294 296 297 299 301 304 306 308 311 314 318 322 325 323 323 321 320 321 318 313 301 296 291 288 282 277 273 268 262 257 259 258 257 258 255 253 256 258 260 260 261 262
287 289 290 292 294 295 296 299 301 303 306 309 314 321 324 323 322 320 319 319 318 315 309 301 295 289 287 284 278 273 268 266 266 262 261 261 259 259 261 262 263 263 264 265
284 286 287 289 290 291 292 294 296 298 301 305 309 316 319 318 318 317 317 316 315 314 308 302 297 289 289 288 287 280 275 272 269 267 265 264 265 265 265 266 266 266 266 266
280 282 285 286 287 287 288 290 291 293 295 299 303 310 313 313 312 314 314 314 313 310 305 300 295 291 289 287 286 285 281 275 273 271 271 270 270 268 268 269 270 270 268 267
276 278 281 284 287 287 287 287 288 288 290 294 299 303 306 308 308 309 311 311 309 308 304 300 295 291 289 288 286 284 283 279 276 275 274 273 272 272 272 271 270 271 270 270
274 276 278 280 281 282 284 285 284 284 287 290 294 297 300 301 302 304 306 307 306 305 303 301 298 294 290 289 286 283 281 280 277 278 276 275 274 274 273 272 271 271 271 271
271 273 275 276 278 278 279 281 280 282 284 287 289 292 294 294 296 299 301 302 302 301 300 299 298 297 293 290 287 283 281 280 279 280 280 278 277 277 276 276 276 275 274 274
268 271 272 274 275 275 276 279 279 280 282 284 287 289 290 290 291 294 296 297 297 297 297 297 297 296 295 293 290 287 284 282 282 283 282 282 282 281 280 279 278 278 279 278
267 269 271 273 274 273 277 278 279 279 281 282 284 287 288 288 289 290 292 293 293 294 294 295 295 295 295 295 293 290 286 283 282 283 283 284 284 284 282 281 281 281 280 278
265 268 270 272 274 275 275 277 279 279 280 281 282 285 287 286 288 289 289 290 291 291 291 292 292 293 294 295 294 292 290 287 285 285 284 285 285 284 283 283 283 283 282 280
265 266 268 271 273 274 276 277 277 278 279 280 283 284 286 286 287 288 288 289 288 289 289 290 291 292 293 294 294 294 293 291 288 287 287 286 286 285 285 285 285 285 285 282
264 266 267 269 271 272 274 276 277 277 279 281 283 283 284 285 286 287 287 287 287 287 287 287 288 290 292 293 294 295 294 291 290 288 288 287 287 286 287 287 287 287 286 285
264 265 266 268 268 270 272 273 274 276 277 279 280 282 282 283 284 285 285 285 284 284 285 286 287 289 291 292 293 293 293 292 290 289 287 287 287 287 288 288 288 287 286 285
263 265 266 267 269 269 269 270 272 273 275 276 278 279 281 282 282 283 283 283 283 283 284 285 286 288 290 291 292 292 292 291 290 288 287 287 287 287 288 289 289 288 287 286
262 264 265 266 268 269 269 269 270 272 273 274 275 277 279 280 281 282 282 282 283 283 284 285 287 288 289 290 291 291 291 290 289 288 287 287 288 288 288 289 289 288 287 286
262 263 264 264 266 268 268 268 269 270 271 273 274 276 278 279 280 281 282 282 282 283 284 286 287 288 288 289 289 290 290 289 288 288 287 287 288 288 288 288 288 287 287 286
260 262 263 263 264 266 267 267 268 269 271 272 274 275 277 278 280 280 281 282 282 283 284 286 287 288 288 288 289 289 289 289 288 288 288 287 288 288 287 287 287 286 286 285
Height
5762 5761 5757 5754 5751 5749 5745 5742 5739 5735 5731 5727 5723 5720 5717 5713 5710 5707 5705 5702 5700 5698 5696 5695 5694 5696 5698 5701 5705 5708 5712 5715 5719 5723 5728 5732 5736 5740 5743 5746 5749 5752 5756 5759
5759 5756 5754 5751 5748 5745 5742 5739 5735 5732 5727 5723 5719 5716 5713 5709 5706 5703 5700 5698 5695 5693 5691 5690 5690 5691 5693 5695 5699 5702 5706 5710 5713 5717 5721 5725 5729 5733 5736 5739 5742 5745 5749 5752
5754 5753 5750 5747 5744 5741 5738 5735 5731 5728 5724 5720 5716 5713 5710 5706 5702 5699 5697 5694 5692 5690 5688 5687 5686 5687 5688 5690 5694 5697 5701 5704 5707 5711 5715 5718 5723 5726 5730 5733 5736 5739 5741 5744
5750 5748 5746 5743 5741 5738 5735 5732 5728 5724 5720 5717 5713 5709 5707 5703 5699 5696 5693 5691 5688 5686 5685 5683 5683 5683 5685 5687 5689 5692 5695 5698 5701 5705 5708 5712 5716 5720 5723 5726 5729 5731 5734 5737
5746 5744 5742 5740 5737 5734 5731 5728 5725 5721 5717 5714 5710 5706 5705 5700 5697 5694 5691 5688 5686 5684 5682 5681 5680 5680 5681 5683 5685 5688 5691 5693 5696 5700 5703 5706 5710 5713 5716 5719 5722 5724 5726 5729
5741 5740 5738 5736 5733 5730 5727 5725 5722 5718 5714 5711 5708 5704 5701 5698 5694 5691 5688 5685 5683 5681 5679 5678 5678 5678 5679 5680 5682 5684 5686 5689 5692 5695 5697 5700 5704 5706 5709 5712 5714 5716 5719 5721
5737 5735 5733 5731 5729 5727 5724 5722 5718 5714 5711 5708 5705 5701 5699 5695 5691 5688 5685 5683 5680 5679 5677 5676 5676 5676 5676 5677 5678 5680 5682 5685 5687 5689 5691 5694 5697 5699 5702 5704 5706 5709 5711 5713
5731 5730 5729 5727 5725 5722 5719 5717 5715 5711 5707 5705 5702 5699 5697 5693 5689 5685 5683 5680 5678 5676 5675 5674 5673 5673 5673 5674 5675 5676 5678 5680 5682 5684 5686 5688 5690 5693 5695 5697 5699 5701 5703 5705
5724 5724 5723 5721 5719 5718 5715 5713 5710 5707 5704 5701 5699 5696 5694 5690 5687 5684 5680 5678 5676 5674 5673 5671 5670 5670 5670 5670 5671 5672 5673 5675 5677 5679 5680 5682 5684 5686 5688 5689 5691 5693 5695 5696
5719 5718 5717 5716 5715 5713 5711 5708 5706 5703 5700 5697 5696 5693 5691 5688 5685 5682 5679 5676 5674 5672 5670 5668 5667 5667 5667 5666 5666 5667 5668 5670 5671 5673 5675 5676 5678 5679 5681 5682 5684 5685 5687 5688
5712 5712 5711 5710 5709 5708 5707 5705 5701 5699 5697 5694 5691 5693 5688 5685 5682 5679 5677 5674 5672 5669 5667 5666 5665 5664 5664 5663 5663 5663 5664 5665 5666 5667 5668 5670 5671 5673 5674 5675 5676 5677 5678 5679
5705 5704 5704 5704 5703 5702 5700 5699 5697 5695 5693 5690 5688 5690 5685 5682 5679 5676 5674 5671 5669 5667 5665 5663 5662 5661 5660 5659 5659 5659 5659 5659 5660 5661 5662 5663 5664 5665 5666 5667 5668 5669 5669 5670
5698 5697 5697 5697 5698 5696 5695 5693 5691 5689 5688 5686 5685 5687 5681 5679 5676 5673 5671 5669 5666 5664 5662 5660 5659 5658 5656 5655 5654 5654 5654 5654 5654 5654 5655 5656 5657 5658 5658 5659 5659 5659 5660 5660
5690 5689 5690 5690 5689 5688 5688 5687 5685 5684 5682 5681 5681 5680 5678 5675 5672 5670 5668 5665 5663 5660 5658 5656 5655 5653 5652 5651 5650 5649 5648 5647 5648 5648 5648 5648 5649 5649 5649 5649 5649 5649 5649 5649
5681 5681 5681 5682 5681 5680 5680 5680 5679 5677 5677 5676 5676 5674 5673 5670 5668 5666 5663 5661 5659 5656 5654 5652 5650 5649 5647 5646 5645 5643 5642 5641 5641 5641 5641 5641 5640 5640 5640 5639 5639 5639 5638 5638
5672 5672 5673 5673 5673 5672 5672 5673 5672 5671 5670 5669 5669 5669 5667 5665 5662 5660 5658 5656 5654 5652 5650 5647 5645 5643 5642 5640 5639 5637 5636 5635 5634 5633 5633 5632 5631 5630 5630 5629 5628 5628 5627 5626
5663 5663 5663 5664 5664 5663 5664 5666 5665 5664 5664 5663 5662 5662 5660 5658 5656 5654 5653 5651 5648 5647 5644 5642 5640 5638 5636 5634 5632 5630 5629 5627 5626 5625 5624 5623 5622 5621 5620 5618 5618 5617 5616 5615
5653 5653 5653 5654 5655 5654 5659 5658 5657 5656 5656 5655 5655 5654 5653 5651 5650 5648 5646 5644 5642 5640 5638 5636 5634 5632 5630 5628 5626 5624 5622 5620 5619 5617 5616 5614 5613 5611 5610 5609 5607 5606 5605 5604
5643 5644 5644 5644 5643 5644 5649 5649 5648 5648 5648 5648 5647 5646 5645 5643 5642 5641 5639 5637 5635 5633 5631 5630 5627 5625 5623 5621 5619 5617 5614 5612 5610 5608 5607 5605 5603 5602 5600 5599 5597 5596 5594 5593
5633 5634 5635 5634 5634 5635 5640 5640 5638 5639 5639 5639 5638 5637 5636 5635 5634 5634 5632 5630 5628 5626 5624 5622 5620 5618 5616 5614 5612 5609 5607 5604 5602 5600 5597 5595 5594 5592 5591 5589 5587 5585 5583 5581
5623 5623 5624 5625 5624 5626 5629 5629 5629 5630 5631 5630 5629 5628 5627 5626 5625 5624 5622 5621 5619 5618 5616 5614 5613 5611 5608 5606 5604 5601 5598 5595 5593 5590 5588 5586 5584 5582 5581 5578 5576 5574 5572 5570
5612 5613 5614 5614 5615 5619 5619 5619 5619 5620 5619 5619 5619 5618 5617 5616 5615 5614 5613 5611 5610 5608 5607 5605 5604 5602 5600 5597 5595 5592 5589 5586 5584 5581 5579 5577 5575 5573 5570 5568 5566 5563 5561 5559
5601 5603 5603 5605 5607 5607 5607 5608 5608 5608 5609 5609 5608 5608 5607 5606 5605 5604 5603 5601 5600 5599 5597 5595 5594 5592 5590 5587 5585 5582 5580 5577 5574 5572 5569 5567 5565 5562 5560 5557 5555 5552 5549 5547
5589 5591 5592 5593 5594 5595 5596 5596 5597 5598 5598 5598 5598 5597 5596 5595 5594 5593 5592 5591 5590 5589 5587 5585 5584 5582 5580 5577 5574 5572 5569 5567 5564 5562 5559 5557 5555 5552 5549 5546 5543 5541 5538 5535
5579 5579 5580 5581 5583 5583 5584 5585 5586 5586 5586 5586 5586 5586 5585 5585 5584 5583 5581 5580 5579 5578 5576 5575 5573 5571 5569 5566 5564 5561 5558 5556 5554 5551 5548 5546 5543 5540 5538 5535 5532 5529 5527 5523
5568 5568 5568 5570 5572 5572 5573 5573 5573 5574 5574 5575 5575 5575 5574 5573 5573 5571 5570 5569 5568 5567 5565 5563 5561 5559 5557 5554 5552 5549 5547 5544 5542 5540 5537 5534 5531 5528 5526 5523 5521 5517 5515 5512